Regional Weather Roundup
Issued by NWS

Home | Current Version | Previous Version | Graphics & Text | Print | Product List | Glossary On
Versions: 1 2 3 4 5 6 7 8 9 10 11 12 13 14 15 16 17 18 19 20 21 22 23 24 25 26 27 28 29 30 31 32 33 34 35 36 37 38 39 40 41 42 43 44 45 46 47 48 49 50
000
ASUS43 KDMX 251606
RWRIA

WEATHER ROUNDUP FOR IOWA
NATIONAL WEATHER SERVICE DES MOINES IA
1100 AM CDT TUE JUL 25 2017

NOTE: "FAIR" INDICATES FEW OR NO CLOUDS BELOW 12,000 FEET WITH NO
SIGNIFICANT WEATHER AND/OR OBSTRUCTIONS TO VISIBILITY.

* - THESE STATIONS ARE NOT NWS STATIONS...THUS NOT UNDER NWS
QUALITY CONTROL.  THEY ALSO DO NOT REPORT WEATHER SUCH
AS PRECIPITATION OR FOG.

IAZ001>003-012>014-020>022-031>034-043>046-251700-
   NORTHWEST IOWA

CITY           SKY/WX    TMP DP  RH WIND       PRES   REMARKS
CARROLL *      SUNNY     81  72  74 S17G24    30.02S HX  84
CHEROKEE *     SUNNY     83  70  66 S14       29.98S HX  86
DENISON *      SUNNY     81  70  69 S12G18    30.02F HX  84
ORANGE CITY *  SUNNY     82  72  69 S15       29.96S HX  87
SHELDON *      SUNNY     81  70  69 S16       29.95R HX  84
SIOUX CITY     SUNNY     85  73  67 S13       29.96S HX  91
SPENCER        SUNNY     83  68  60 S13       29.98S HX  86
STORM LAKE *   SUNNY     81  70  69 S15G22    30.00S HX  84
$$

IAZ055>058-069>071-079>083-090>094-251700-
   SOUTHWEST IOWA

CITY           SKY/WX    TMP DP  RH WIND       PRES   REMARKS
ATLANTIC *     SUNNY     82  70  65 S14G22    30.04S HX  86
AUDUBON *      SUNNY     82  72  69 S13G20    30.05S HX  87
CLARINDA *     SUNNY     82  72  69 S13       30.07F HX  87
COUNCIL BLFS * SUNNY     82  73  74 S12       30.02F HX  88
CRESTON *      SUNNY     81  70  69 S15       30.09S HX  84
HARLAN  *      SUNNY     82  72  69 S15       30.06S HX  87
LAMONI         SUNNY     80  68  66 SE10      30.10R HX  83
RED OAK *      SUNNY     82  72  69 S13       30.04S HX  87
SHENANDOAH *   SUNNY     82  72  69 S12       30.04F HX  87
$$

IAZ047>049-059>061-072>074-084-251700-
   CENTRAL IOWA

CITY           SKY/WX    TMP DP  RH WIND       PRES   REMARKS
AMES           SUNNY     80  70  71 S15       30.07S HX  83
ANKENY *       SUNNY     81  70  69 S12       30.08S HX  84
BOONE *        SUNNY     79  68  69 S16G22    30.06S HX  81
CHARITON *     SUNNY     81  66  61 SE13G18   30.09S HX  83
DES MOINES     MOSUNNY   83  67  58 S14       30.07S HX  85
GRINNELL*      SUNNY     78  68  72 S10       30.12S
KNOXVILLE *    SUNNY     81  66  61 S13G21    30.07F HX  83
MARSHALLTOWN   SUNNY     78  69  73 S15       30.09R HX  80
NEWTON *       SUNNY     79  70  73 S12       30.10R HX  81
PELLA *        SUNNY     82  67  60 S9        30.10F HX  84
$$

IAZ004>006-015-016-023>025-035-036-251700-
   NORTH CENTRAL IOWA

CITY           SKY/WX    TMP DP  RH WIND       PRES   REMARKS
ALGONA *       SUNNY     81  68  65 S20G29    30.02R HX  83
CLARION *      SUNNY     79  70  73 S18       30.06R HX  81
ESTHERVILLE    MOSUNNY   78  68  71 S20G28    29.99R HX  80
FORT DODGE *   SUNNY     81  66  61 S13G21    30.05S HX  83
MASON CITY     CLOUDY    77  66  68 S15G22    30.09R
FOREST CITY *    N/A     79  68  69 S14       30.06S HX  81
WEBSTER CITY * SUNNY     79  68  69 S15G24    30.04S HX  81
IOWA FALLS *     N/A     79  68  69 SE16      30.09S HX  81
$$

IAZ007>011-017>019-026>030-037>042-050>054-066-251700-
   NORTHEAST IOWA

CITY           SKY/WX    TMP DP  RH WIND       PRES   REMARKS
CEDAR RAPIDS   MOSUNNY   74  68  81 SE10      30.13S
CHARLES CITY * CLOUDY    70  68  94 SE13      30.12R
DECORAH *      CLOUDY    64  63  94 E7        30.15R
DUBUQUE        MOSUNNY   72  63  73 S10       30.18R
MONTICELLO *   MOSUNNY   73  64  73 SE10G16   30.15F
OELWEIN *      CLOUDY    72  66  83 SE9G15    30.14R
WATERLOO       MOSUNNY   74  66  76 S13       30.10R
$$

IAZ064-065-067-068-078-251700-
   EAST CENTRAL IOWA

CITY           SKY/WX    TMP DP  RH WIND       PRES   REMARKS
DAVENPORT      SUNNY     75  64  68 SE8       30.19R
IOWA CITY      SUNNY     76  66  71 SE12      30.15S
MT. PLEASANT * SUNNY     79  65  62 S5        30.14S HX  81
MUSCATINE *    SUNNY     75  64  69 VRB6      30.16R
QUAD CITIES    SUNNY     76  64  66 S6        30.16R
$$

IAZ062-063-075>077-085>089-095>099-251700-
   SOUTHEAST IOWA

CITY           SKY/WX    TMP DP  RH WIND       PRES   REMARKS
BURLINGTON     SUNNY     77  68  73 SE7       30.14S
FAIRFIELD *    SUNNY     79  64  61 SE8       30.12F HX  81
FORT MADISON * SUNNY     77  70  78 SE7       30.14S
KEOKUK *       SUNNY     79  68  69 MISG      30.13S HX  81
OSKALOOSA *      N/A     80  67  65 S9        30.12R HX  82
CENTERVILLE *    N/A     81  68  65 SE12      30.13S HX  83
OTTUMWA        SUNNY     81  67  62 SE10      30.11F HX  83
WASHINGTON *   SUNNY     77  68  73 S8G14     30.14F
$$

ABBREVIATIONS USED IN REMARKS
   TC - TEMPERATURES IN CELSIUS
  WCI - WIND CHILL INDEX
   HX - HEAT INDEX
  VSB - VISIBILITY
$$





USA.gov is the U.S. government's official web portal to all federal, state and local government web resources and services.